Amateur Radio Satellites - All Passes

Search period start: 25 May 2013 12:46
Search period end: 26 May 2013 12:46
Location: Las Vegas, 36.1750°N, 115.1360°W

Satellite Date Start Highest point End Downlink Frequencies (MHz)
Time Altitude Azimuth
Oscar 19 25 May 12:56:54 13:01:15 28° 68° (ENE) 13:05:36 437.125 CW, 437.150 USB
Uribyol 2 25 May 12:59:52 13:04:04 26° 67° (ENE) 13:08:18 436.500 FM
Saudisat 1A 25 May 13:05:28 13:09:02 22° 50° (NE) 13:12:33 436.775 MHz
Oscar 16 25 May 13:35:49 13:41:00 79° 75° (ENE) 13:46:13 437.025 USB, Beacon 2401.1428
AO-27 25 May 13:51:53 13:57:03 82° 76° (ENE) 14:02:15 436.795 MHz FM
ITAMSAT 1 25 May 13:57:45 14:02:56 89° 256° (WSW) 14:08:09 435.822 SSB
PANSAT 25 May 14:00:45 14:03:12 16° 196° (SSW) 14:05:37 not established
Uosat F 25 May 14:12:46 14:15:57 17° 65° (ENE) 14:19:08 435.120 FM
AO-Echo 25 May 14:15:47 14:20:20 42° 72° (ENE) 14:24:48 ?
Gurwin Techsat 1B 25 May 14:34:27 14:38:36 24° 67° (ENE) 14:42:46 435.225 FM
Oscar 19 25 May 14:35:52 14:40:27 31° 263° (W) 14:45:04 437.125 CW, 437.150 USB
Sapphire 25 May 14:36:07 14:38:37 13° 46° (NE) 14:41:07 437.095 MHz 1200 baud AX-25 AFSK
Uribyol 2 25 May 14:38:44 14:43:22 34° 263° (W) 14:48:04 436.500 FM
Saudisat 1A 25 May 14:44:41 14:48:49 36° 246° (WSW) 14:52:53 436.775 MHz
RS-15 25 May 14:49:55 15:00:52 42° 108° (ESE) 15:11:26 29.354 - 29.394 USB, Beacon 29.352 USB
AO-7 25 May 14:58:58 15:04:08 19° 54° (NE) 15:09:19 29.400 - 29.500 MHz
PCSat 25 May 15:44:21 15:49:36 48° 59° (ENE) 15:54:49 145.825 MHz
TMSAT-1 25 May 15:49:11 15:54:29 83° 76° (ENE) 15:59:48 436.925 FM
Uosat F 25 May 15:49:31 15:54:20 49° 260° (W) 15:59:11 435.120 FM
AO-Echo 25 May 15:56:10 15:59:16 17° 266° (W) 16:02:21 ?
Gurwin Techsat 1B 25 May 16:13:26 16:18:20 38° 262° (W) 16:23:16 435.225 FM
Sapphire 25 May 16:17:22 16:22:49 89° 64° (ENE) 16:28:14 437.095 MHz 1200 baud AX-25 AFSK
AO-7 25 May 16:47:29 16:55:47 89° 72° (ENE) 17:04:09 29.400 - 29.500 MHz
SO-50 25 May 16:51:07 16:55:37 62° 58° (ENE) 17:00:02 436.795 FM
RS-15 25 May 17:01:13 17:12:58 56° 307° (NW) 17:24:16 29.354 - 29.394 USB, Beacon 29.352 USB
PCSat 25 May 17:28:46 17:32:37 20° 255° (WSW) 17:36:27 145.825 MHz
JAS-1B 25 May 18:25:03 18:32:31 31° 66° (ENE) 18:39:03 435.800 - 435.900 CW/SSB
Hamsat 25 May 18:33:45 18:37:41 40° 73° (ENE) 18:41:40 145.90 MHz
SO-50 25 May 18:34:18 18:35:38 11° 253° (WSW) 18:36:58 436.795 FM
AO-7 25 May 18:44:51 18:49:27 16° 268° (W) 18:54:05 29.400 - 29.500 MHz
SO-67 25 May 18:50:55 18:53:13 17° 70° (ENE) 18:55:32 435.3500 MHz FM
STRAND 1 25 May 19:10:36 19:15:47 90° 101° (E) 19:20:56 ?
RS-15 25 May 19:21:14 19:28:45 19° 335° (NNW) 19:36:07 29.354 - 29.394 USB, Beacon 29.352 USB
UOSAT-12 25 May 19:33:12 19:37:45 58° 58° (ENE) 19:42:16 437.025 FM, 437.400 FM
Hamsat 25 May 20:11:42 20:13:56 14° 268° (W) 20:16:11 145.90 MHz
JAS-1B 25 May 20:13:37 20:22:42 57° 259° (WSW) 20:30:30 435.800 - 435.900 CW/SSB
SO-67 25 May 20:23:33 20:26:29 24° 264° (W) 20:29:25 435.3500 MHz FM
Oscar 11 25 May 20:41:56 20:44:23 15° 66° (ENE) 20:46:51 145.825 FM, Beacon 2401.500 USB
HO-68 25 May 20:55:00 21:01:57 58° 70° (ENE) 21:08:55 435.675 MHz FM
JAS-2 25 May 20:59:20 21:06:39 47° 69° (ENE) 21:14:01 435.800 - 435.900 CW/SSB, 435.910 FM
UOSAT-12 25 May 21:15:17 21:17:24 13° 252° (WSW) 21:19:31 437.025 FM, 437.400 FM
OPAL 25 May 21:26:37 21:31:00 29° 66° (ENE) 21:35:21 ?
RS-15 25 May 21:42:11 21:47:58 15° 14° (NNE) 21:53:39 29.354 - 29.394 USB, Beacon 29.352 USB
KITSAT 1 25 May 21:42:59 21:50:41 52° 111° (ESE) 21:58:26 435.175 FM
Oscar 11 25 May 22:16:09 22:20:14 42° 261° (W) 22:24:21 145.825 FM, Beacon 2401.500 USB
HO-68 25 May 22:44:33 22:49:58 23° 265° (W) 22:55:25 435.675 MHz FM
JAS-2 25 May 22:44:46 22:51:39 35° 265° (W) 22:58:40 435.800 - 435.900 CW/SSB, 435.910 FM
AO-40 25 May 22:46:15 01:28:50 53° 182° (S) 08:11:21 Beacon 2401.320
OPAL 25 May 23:05:11 23:09:45 31° 261° (W) 23:14:19 ?
KITSAT 1 25 May 23:39:07 23:46:18 35° 310° (NW) 23:53:34 435.175 FM
RS-15 25 May 23:54:37 00:04:53 40° 46° (NE) 00:14:51 29.354 - 29.394 USB, Beacon 29.352 USB
MaSat-1 25 May 23:58:00 00:03:57 29° 106° (ESE) 00:09:08 437.345 MHz
ISS 26 May 00:59:04 01:02:20 71° 137° (SE) 01:05:38 145.800 FM
Oscar 19 26 May 01:13:27 01:14:58 11° 91° (E) 01:16:28 437.125 CW, 437.150 USB
Uribyol 2 26 May 01:17:47 01:18:53 11° 90° (E) 01:19:59 436.500 FM
MaSat-1 26 May 01:39:15 01:45:58 46° 296° (WNW) 01:51:32 437.345 MHz
Oscar 16 26 May 01:50:46 01:55:28 35° 98° (E) 02:00:07 437.025 USB, Beacon 2401.1428
RS-15 26 May 02:06:58 02:17:37 58° 248° (WSW) 02:28:07 29.354 - 29.394 USB, Beacon 29.352 USB
AO-27 26 May 02:08:00 02:12:50 37° 98° (E) 02:17:38 436.795 MHz FM
ITAMSAT 1 26 May 02:13:40 02:18:36 41° 99° (E) 02:23:30 435.822 SSB
AO-Echo 26 May 02:26:31 02:29:37 17° 94° (E) 02:32:44 ?
ISS 26 May 02:37:18 02:39:22 15° 334° (NNW) 02:41:26 145.800 FM
Oscar 19 26 May 02:49:39 02:54:47 71° 285° (WNW) 02:59:53 437.125 CW, 437.150 USB
Uribyol 2 26 May 02:53:38 02:58:53 76° 285° (WNW) 03:04:05 436.500 FM
Gurwin Techsat 1B 26 May 02:55:27 02:56:47 11° 90° (E) 02:58:07 435.225 FM
Oscar 16 26 May 03:30:30 03:34:37 25° 293° (WNW) 03:38:44 437.025 USB, Beacon 2401.1428
AO-27 26 May 03:48:00 03:52:07 24° 293° (WNW) 03:56:14 436.795 MHz FM
ITAMSAT 1 26 May 03:53:53 03:57:48 22° 294° (WNW) 04:01:43 435.822 SSB
Uosat F 26 May 03:59:49 04:04:49 64° 102° (ESE) 04:09:48 435.120 FM
AO-Echo 26 May 04:04:01 04:08:34 44° 287° (WNW) 04:13:12 ?
TMSAT-1 26 May 04:08:05 04:13:06 41° 98° (E) 04:18:04 436.925 FM
Gurwin Techsat 1B 26 May 04:31:57 04:37:16 76° 285° (WNW) 04:42:34 435.225 FM
Saudisat 1A 26 May 04:48:48 04:53:20 74° 301° (WNW) 04:57:57 436.775 MHz
STRAND 1 26 May 04:49:33 04:50:39 11° 61° (ENE) 04:51:45 ?
AO-7 26 May 04:52:36 05:00:07 36° 99° (E) 05:07:35 29.400 - 29.500 MHz
Sapphire 26 May 05:15:38 05:18:56 17° 104° (ESE) 05:22:15 437.095 MHz 1200 baud AX-25 AFSK
KITSAT 1 26 May 05:40:00 05:45:18 18° 39° (NE) 05:50:35 435.175 FM
Uosat F 26 May 05:40:35 05:43:03 14° 297° (WNW) 05:45:31 435.120 FM
TMSAT-1 26 May 05:48:43 05:52:44 22° 294° (WNW) 05:56:44 436.925 FM
PCSat 26 May 06:23:14 06:28:37 78° 115° (ESE) 06:34:03 145.825 MHz
STRAND 1 26 May 06:24:01 06:29:06 83° 257° (WSW) 06:34:14 ?
AO-7 26 May 06:45:06 06:52:57 47° 295° (WNW) 07:00:48 29.400 - 29.500 MHz
Sapphire 26 May 06:56:32 07:01:50 57° 300° (WNW) 07:07:11 437.095 MHz 1200 baud AX-25 AFSK
SO-50 26 May 07:03:53 07:08:22 40° 114° (ESE) 07:12:48 436.795 FM
ISS 26 May 07:30:11 07:33:09 28° 34° (NNE) 07:36:06 145.800 FM
KITSAT 1 26 May 07:33:56 07:42:06 77° 61° (ENE) 07:50:13 435.175 FM
SO-67 26 May 07:52:32 07:55:43 29° 97° (E) 07:58:52 435.3500 MHz FM
Hamsat 26 May 07:58:31 08:02:51 65° 284° (WNW) 08:07:12 145.90 MHz
JAS-1B 26 May 08:03:18 08:08:52 46° 99° (E) 08:14:18 435.800 - 435.900 CW/SSB
PCSat 26 May 08:09:35 08:12:40 15° 313° (NW) 08:15:46 145.825 MHz
HO-68 26 May 08:30:45 08:31:25 10° 89° (E) 08:32:05 435.675 MHz FM
PANSAT 26 May 08:40:11 08:41:18 11° 160° (SSE) 08:42:25 not established
SO-50 26 May 08:45:19 08:49:06 23° 310° (NW) 08:52:52 436.795 FM
ISS 26 May 09:06:56 09:09:48 26° 229° (SW) 09:12:39 145.800 FM
SO-67 26 May 09:27:01 09:28:53 14° 291° (WNW) 09:30:45 435.3500 MHz FM
KITSAT 1 26 May 09:31:09 09:36:36 20° 258° (WSW) 09:42:03 435.175 FM
UOSAT-12 26 May 09:42:38 09:46:36 31° 113° (ESE) 09:50:36 437.025 FM, 437.400 FM
JAS-1B 26 May 09:55:06 09:59:10 20° 297° (WNW) 10:03:07 435.800 - 435.900 CW/SSB
JAS-2 26 May 09:58:10 10:04:25 45° 97° (E) 10:09:55 435.800 - 435.900 CW/SSB, 435.910 FM
Oscar 11 26 May 10:06:40 10:10:48 41° 99° (E) 10:14:55 145.825 FM, Beacon 2401.500 USB
HO-68 26 May 10:12:52 10:20:03 77° 105° (ESE) 10:27:13 435.675 MHz FM
PANSAT 26 May 10:17:57 10:21:03 23° 171° (S) 10:24:10 not established
MaSat-1 26 May 10:27:38 10:30:24 32° 61° (ENE) 10:32:47 437.345 MHz
OPAL 26 May 11:17:13 11:22:13 87° 106° (ESE) 11:27:09 ?
UOSAT-12 26 May 11:23:01 11:26:46 25° 309° (NW) 11:30:32 437.025 FM, 437.400 FM
JAS-2 26 May 11:43:50 11:49:03 26° 297° (WNW) 11:53:49 435.800 - 435.900 CW/SSB, 435.910 FM
Oscar 11 26 May 11:44:03 11:46:40 16° 293° (WNW) 11:49:17 145.825 FM, Beacon 2401.500 USB
PANSAT 26 May 11:57:42 12:00:57 25° 184° (S) 12:04:12 not established
HO-68 26 May 12:02:15 12:06:56 19° 301° (WNW) 12:11:38 435.675 MHz FM
Oscar 19 26 May 12:27:34 12:30:14 14° 63° (ENE) 12:32:54 437.125 CW, 437.150 USB
Uribyol 2 26 May 12:32:41 12:35:15 14° 63° (ENE) 12:37:49 436.500 FM

Developed and maintained by Chris Peat, Heavens-Above GmbH. Please read the updated FAQ before sending e-mail. Imprint. DLR
